Location: Arrabal de la Barceloneta
(41.3167°N, 1.9167°E)
Time: 16:44:40
(UTC+00:00)

Daily predictions for brighter satellites

Satellite Brightness Start Highest point End
(mag) Time Altitude Azimuth Time Altitude Azimuth Time Altitude Azimuth
Sich 1 3.3 19:29:55 10° N 19:34:18 78° W 19:38:40 10° S
Cosmos 1666 Rocket 3.6 19:32:15 10° N 19:36:35 63° E 19:40:52 10° SSE
USA 267 3.4 19:31:45 10° SE 19:38:18 84° SW 19:44:53 10° NW
Cosmos 1151 Rocket 3.1 19:34:14 10° S 19:38:32 65° E 19:42:54 10° NNE
USA 307 3.1 19:40:19 10° NW 19:44:35 63° NE 19:48:49 10° ESE
Cosmos 1500 3.8 19:42:09 10° N 19:45:38 37° ENE 19:49:06 10° SSE
Cosmos 1782 2.8 19:44:08 10° S 19:48:06 86° E 19:52:06 10° N
Cosmos 773 Rocket 4.1 19:43:13 10° NNW 19:48:33 90° SSW 19:53:48 10° SSE
Resurs 1-3 3.9 19:44:46 10° SSE 19:49:01 52° ENE 19:53:17 10° N
ERS-2 2.9 19:46:24 10° N 19:49:59 55° WNW 19:53:31 10° SSW
IRS-1A Rocket 4.5 19:44:31 10° SSE 19:50:15 68° ENE 19:56:08 10° N
GEOS 3 Rocket 4.4 19:45:24 10° SSE 19:50:38 53° WSW 19:55:54 10° NW
OBJECT-B 1.3 19:52:42 10° S 19:55:53 59° W 19:59:06 10° NNW
USA 308 2.9 19:54:12 10° NW 19:58:31 80° NE 20:02:16 13° SE
SJ-6B 3.4 19:56:57 10° S 20:00:51 59° W 20:04:50 10° NNW
USA 186 3.4 19:59:15 10° SSW 20:01:09 22° W 20:03:02 10° NW
Akebono 3.8 19:59:47 10° NNW 20:01:52 68° ENE 20:03:47 14° SSE
Cosmos 1538 Rocket 4.1 19:59:48 10° NNW 20:05:08 67° ENE 20:10:01 12° SSE
ISS -3.5 20:02:44 10° WSW 20:06:04 73° NW 20:09:27 10° NE
OAO 3 Rocket 3.8 20:06:27 10° WSW 20:10:42 36° S 20:14:01 15° ESE
Cosmos 1709 Rocket 4.2 20:06:14 10° N 20:12:21 75° W 20:18:26 10° S
SPOT 3 Rocket 3.7 20:12:40 14° SSE 20:17:03 56° ENE 20:22:05 10° N
Cosmos 2082 Rocket 2.4 20:11:58 10° NNW 20:17:31 55° ENE 20:21:44 17° SE
Cosmos 1943 Rocket 3.3 20:14:37 14° SE 20:18:02 24° ESE 20:22:25 10° NE
Cosmos 1461 4.1 20:16:06 10° S 20:20:00 26° ESE 20:23:54 10° NE
Delta 2 Rocket 4.3 20:17:00 10° WSW 20:22:03 42° S 20:25:07 19° SE
CZ-4C R/B 3.4 20:14:49 10° NW 20:22:15 64° WSW 20:30:15 12° SSE
Cosmos 2074 Rocket 4.3 20:17:29 10° N 20:23:38 52° ENE 20:28:25 17° SSE
Cosmos 2184 Rocket 4.2 20:19:57 10° N 20:26:00 51° ENE 20:30:30 18° SSE
Cosmos 44 4.3 20:25:24 10° NNW 20:30:30 40° NE 20:33:48 19° ESE
Ariane Rocket 3.7 20:28:00 10° S 20:32:55 52° W 20:37:53 10° NNW
NOSS 3-4 (A) 3.9 20:26:24 10° NW 20:33:32 85° NE 20:39:25 20° SE
NOSS 3-4 (C) 3.9 20:26:30 10° NW 20:33:39 84° NE 20:39:31 20° SE
Iridium 4 Rocket 4.0 20:28:48 14° SSE 20:33:43 57° E 20:39:29 10° N
Cosmos 1271 Rocket 2.7 20:30:32 10° S 20:34:31 81° E 20:38:32 10° NNE
USA 305 3.5 20:31:22 10° WNW 20:35:28 46° SW 20:37:52 22° SSE
Cosmos 1515 Rocket 3.9 20:31:07 10° SSW 20:35:29 67° W 20:39:52 10° N
Meteor 1-10 Rocket 4.2 20:29:57 10° S 20:35:31 76° E 20:41:14 10° NNE
Cosmos 967 Rocket 4.5 20:29:47 10° SSW 20:35:52 56° ESE 20:42:00 10° NE
Cosmos 2278 Rocket 3.6 20:34:05 10° SW 20:39:24 42° WNW 20:44:46 10° N
Cosmos 990 Rocket 4.0 20:37:15 10° S 20:42:25 65° ESE 20:47:38 10° NNE
COSMOS 2406 4.0 20:37:01 10° NW 20:42:26 47° WSW 20:47:21 12° S
Cosmos 1536 3.7 20:39:31 10° N 20:43:13 34° ENE 20:44:25 28° ESE
Cosmos 2369 Rocket 3.5 20:42:46 20° ESE 20:43:16 20° E 20:47:15 10° NE
Cosmos 2228 Rocket 3.1 20:40:36 20° SSE 20:43:31 60° E 20:47:56 10° NNE
Cosmos 1869 Rocket 4.0 20:40:43 10° N 20:44:52 43° ENE 20:46:32 29° SE
ATLAS 2AS CENTAUR R/B 2.9 20:39:33 10° NNW 20:46:50 63° NE 20:51:07 24° SE
GPS 2-04 Rocket1 4.3 20:44:03 10° WSW 20:47:14 21° SSW 20:47:58 20° S
Cosmos 158 Rocket 3.8 20:42:29 10° NNW 20:47:24 83° WSW 20:50:26 24° SSE
Resurs 01 Rocket 2.0 20:44:55 16° S 20:48:19 61° W 20:52:44 10° NNW
Cosmos 1898 Rocket 3.6 20:43:47 12° S 20:48:37 59° ESE 20:53:52 10° NNE
Cosmos 1666 2.9 20:46:35 10° NNW 20:50:17 66° W 20:52:23 24° S
USA 306 4.1 20:51:20 10° WNW 20:55:07 32° SW 20:56:52 23° S
Tianhe-1 0.9 20:52:49 10° W 20:55:57 88° N 20:56:47 46° E
Terra 3.1 20:55:27 22° E 20:56:58 26° ENE 21:00:54 10° NNE
Cosmos 923 Rocket 4.0 20:52:12 10° NNW 20:57:32 84° ENE 21:00:16 29° SSE
Cosmos 1707 Rocket 4.2 20:58:16 33° ESE 20:59:03 35° E 21:03:05 10° NNE
Meteor 2-12 Rocket 4.4 20:53:01 10° N 20:59:04 72° E 21:02:32 27° SSE
CARTOSAT-1 3.8 20:58:59 36° SE 21:00:25 52° ENE 21:04:38 10° N
SL-24 R/B - RUBIN 2 3.9 20:58:55 10° NNW 21:04:15 70° NE 21:06:09 36° SE
Cosmos 1818 4.1 20:59:56 10° NNW 21:05:15 49° NE 21:07:40 30° ESE
DNEPR-1 R/B 4.1 21:00:07 10° SSW 21:06:25 87° ESE 21:11:33 10° NE
Cosmos 2084 Rocket 3.8 21:02:59 10° NNW 21:07:13 55° NE 21:08:37 38° ESE
Cosmos 1833 Rocket 4.3 21:03:18 10° NW 21:08:03 28° WSW 21:12:35 11° SSW
JB-3 4.1 21:05:17 10° NNE 21:09:07 70° E 21:10:01 49° SSE
CZ-2C R/B 3.0 21:07:07 10° SW 21:08:34 18° SSW 21:08:34 18° SSW
SJ 16-02 3.8 21:08:00 10° WSW 21:11:32 23° WNW 21:15:06 10° N
Meteor 1-27 Rocket 4.0 21:17:45 15° SSW 21:22:36 71° W 21:28:33 10° N
Cosmos 2341 Rocket 4.3 21:18:00 10° N 21:24:14 52° ENE 21:26:26 36° SE
Cosmos 1743 2.8 21:21:09 10° N 21:24:58 56° E 21:25:03 56° E
Milstar 3 4.1 21:13:02 10° WSW 21:27:38 42° S 21:31:31 31° SSE
Cosmos 1733 Rocket 3.6 21:24:29 10° N 21:28:36 41° ENE 21:28:47 40° E
ERBS 2.8 21:25:57 10° NW 21:29:01 51° NNE 21:29:01 51° NNE
SL-24 DEB 4.1 21:29:48 55° SE 21:30:43 73° E 21:35:19 10° N
ERS-1 Rocket 2.9 21:29:16 47° SSE 21:30:43 81° ENE 21:35:47 10° N
SPOT 5 3.0 21:30:45 46° SSE 21:32:22 83° ENE 21:37:43 10° NNW
ARIANE 5 R/B 2.9 21:33:20 44° SSW 21:34:25 60° WSW 21:38:44 10° NNW
Cosmos 2112 Rocket 4.2 21:30:33 10° NNW 21:35:53 70° WSW 21:37:35 43° S
Meteor 1-19 Rocket 4.3 21:35:59 46° ESE 21:36:46 50° E 21:41:59 10° NNE
Spot 2 Rocket 4.0 21:38:05 35° SSW 21:39:58 54° W 21:44:54 10° NNW
SL-8 Rocket 4.3 21:33:54 10° N 21:40:05 53° ENE 21:41:47 42° SE
Cosmos 1238 Rocket 3.6 21:35:04 10° N 21:40:31 54° ENE 21:41:08 50° ESE
Cosmos 1937 Rocket 3.8 21:38:08 21° SW 21:41:34 64° WNW 21:46:44 10° NNE
ISS -0.9 21:40:51 10° WNW 21:43:20 19° NNW 21:45:51 10° NNE
Gbstr 26 Del rocket 4.0 21:43:37 10° NW 21:51:12 88° NE 21:53:23 46° ESE
Cosmos 1340 Rocket 3.5 21:50:02 10° NNW 21:53:56 46° W 21:54:15 45° WSW
Okean 1 3.3 21:55:06 76° NNW 21:55:06 76° NNW 21:58:51 10° N
Cosmos 1515 4.0 21:56:48 61° WNW 21:56:48 61° WNW 22:00:21 10° N
Cosmos 1867 3.4 21:56:31 52° SSW 21:57:54 82° ESE 22:03:24 10° NE
Lacrosse 5 3.8 22:02:09 17° ENE 22:02:09 17° ENE 22:03:29 10° ENE
H-2A R/B 3.5 21:54:55 10° N 21:59:04 74° WNW 21:59:11 74° W
Cosmos 2082 Rocket 4.1 21:57:06 10° NW 22:01:07 20° W 22:03:37 15° SW
Cosmos 1943 Rocket 3.0 21:56:00 10° SW 22:01:26 48° WNW 22:06:51 10° NNE
Cosmos 864 Rocket 4.5 21:58:37 10° N 22:04:43 64° E 22:05:51 54° SE
Cosmos 1959 Rocket 4.4 22:01:06 10° N 22:07:16 70° E 22:08:24 57° SE
Okean 1-7 4.4 22:08:56 28° ENE 22:08:56 28° ENE 22:11:34 10° NNE
Cosmos 1656 Rocket 3.5 22:08:33 66° ESE 22:08:42 66° ESE 22:14:11 10° NNE
ATLAS CENTAUR R/B 2.7 22:11:29 29° NNE 22:11:29 29° NNE 22:13:26 10° NNE
Cosmos 1862 Rocket 3.8 22:14:37 61° W 22:14:37 61° W 22:18:54 10° N
Cosmos 1607 4.1 22:22:46 31° SW 22:26:06 74° WNW 22:32:38 10° NNE
Cosmos 2369 Rocket 2.7 22:24:29 33° SW 22:26:47 56° WNW 22:32:22 10° NNE
Terra 3.0 22:34:20 33° WSW 22:34:34 33° W 22:38:53 10° NNW
Cosmos 44 Rocket 4.2 22:31:07 10° NNW 22:36:03 42° NE 22:36:33 40° ENE
Cosmos 2298 Rocket 3.9 22:36:28 83° W 22:36:33 84° WNW 22:41:53 10° NNE
ATLAS 2AS CENTAUR R/B 3.9 22:31:26 10° NW 22:37:10 27° WSW 22:38:33 25° SW
Cosmos 1975 3.9 22:34:24 10° NNW 22:37:19 43° NW 22:37:19 43° NW
Cosmos 494 Rocket 4.2 22:35:41 10° NNW 22:40:39 60° ENE 22:40:39 60° ENE
Cosmos 1821 Rocket 4.2 22:35:46 10° N 22:42:05 58° E 22:42:44 55° ESE
Cosmos 2366 rocket 4.2 22:37:26 10° NNW 22:43:32 62° W 22:44:34 54° SW
Cosmos 724 4.2 22:45:27 75° SE 22:45:38 76° ESE 22:51:54 10° NE
Gblst 52 Del rocket 4.4 22:42:40 10° WNW 22:49:32 69° SW 22:49:39 69° SSW
RESURS DK-1 3.6 22:48:56 10° NNW 22:51:42 39° NW 22:51:42 39° NW
ALOS 2 3.5 23:08:32 45° NNE 23:08:32 45° NNE 23:11:49 10° N
Cosmos 1125 Rocket 3.8 23:07:51 60° WNW 23:07:53 60° WNW 23:13:03 10° NNE
Cosmos 1066 Rocket 4.3 23:09:13 69° ENE 23:09:13 69° ENE 23:14:28 10° NNE
Meteor 1-12 Rocket 4.2 23:06:31 10° N 23:12:15 86° NNE 23:12:15 86° NNE
Spot 4 4.4 23:17:18 53° WNW 23:17:18 53° WNW 23:21:18 10° NNW
ISS -0.6 23:19:09 10° NNW 23:21:08 15° N 23:22:53 11° NE
Cosmos 2297 Rocket 4.2 23:17:13 10° N 23:21:29 21° NE 23:23:53 17° E
COSMOS 2455 4.1 23:17:46 10° NNW 23:23:12 34° NE 23:25:11 28° E
Meteor 1-15 Rocket 4.3 23:19:15 10° N 23:24:54 69° ENE 23:24:54 69° ENE
Nadezhda 3 Rocket 4.1 23:25:32 61° WSW 23:26:04 64° W 23:32:15 10° N
Lacrosse 5 2.7 23:41:16 45° WNW 23:41:49 47° NW 23:46:44 10° NE
BREEZE-M DEB (TANK) 4.0 23:31:08 10° WNW 23:41:14 65° W 23:41:14 65° W
Cosmos 1605 Rocket 4.0 23:42:09 10° N 23:48:27 67° E 23:48:50 65° ESE
ATLAS CENTAUR R/B 4.2 23:48:17 10° NW 23:49:10 11° NW 23:50:04 10° NNW
Okean 2 Rocket 4.1 23:45:29 10° N 23:48:30 43° N 23:48:30 43° N
SeaSat 1 3.8 23:45:45 10° NE 23:48:47 29° ENE 23:48:47 29° ENE
